Regional Weather Roundup
Issued by NWS

Home | Current Version | Previous Version | Graphics & Text | Print | Product List | Glossary Off
Versions: 1 2 3 4 5 6 7 8 9 10 11 12 13 14 15 16 17 18 19 20 21 22 23 24 25 26 27 28 29 30 31 32 33 34 35 36 37 38 39 40 41 42 43 44 45 46 47 48 49 50

000
ASUS43 KMKX 242321
RWRWI

WISCONSIN REGIONAL WEATHER ROUNDUP
NATIONAL WEATHER SERVICE MILWAUKEE/SULLIVAN WI
600 PM CDT FRI MAR 24 2017

NOTE: "FAIR" INDICATES FEW OR NO CLOUDS BELOW 12,000 FEET WITH NO
SIGNIFICANT WEATHER AND/OR OBSTRUCTIONS TO VISIBILITY.

WIZ001-002-006>008-014>016-023>028-250000-
NORTHWEST WISCONSIN

CITY           SKY/WX    TMP DP  RH WIND       PRES   REMARKS
SUPERIOR ARPT  CLOUDY    37  33  87 N3        30.19R
ASHLAND        CLOUDY    38  31  76 NE9       30.19R WCI  31
HAYWARD        CLOUDY    39  31  72 N7        30.14R WCI  34
SIREN          CLOUDY    38  32  77 NE10      30.13F WCI  32
CUMBERLAND     CLOUDY    36  34  93 NE10      30.11F WCI  28
RICE LAKE      CLOUDY    39  35  84 N10       30.13S WCI  32
CHETEK         CLOUDY    39  35  85 NE8       30.11R WCI  33
LADYSMITH      CLOUDY    38  35  86 N7        30.14R WCI  33
EAU CLAIRE     CLOUDY    41  36  82 NE10G21   30.07S
MENOMONIE      CLOUDY    42  36  79 N10       30.08S
NEW RICHMOND   CLOUDY    40  34  78 N13       30.10R WCI  33
OSCEOLA        CLOUDY    41  35  78 N10       30.14S
$$

WIZ003>005-009-010-017-018-250000-
NORTH CENTRAL WISCONSIN

CITY           SKY/WX    TMP DP  RH WIND       PRES   REMARKS
MANITOWISH WTR CLOUDY    34  34 100 NE6       30.11R WCI  29
ARBOR VITAE    CLOUDY    37  35  93 NE8       30.09S FOG     WCI  30
WOODRUFF       CLOUDY    37  35  93 NE8       30.09S FOG     WCI  30
RHINELANDER    CLOUDY    37  35  92 N5        30.09R FOG     WCI  33
EAGLE RIVER    CLOUDY    34  34 100 NE8       30.09S FOG     WCI  27
LAND O LAKES   CLOUDY    35  35 100 N5        30.12R FOG     WCI  31
PHILLIPS       CLOUDY    36  35  96 N10       30.10R WCI  28
TOMAHAWK       CLOUDY    36  33  90 N6        30.09R FOG     WCI  31
MEDFORD        CLOUDY    36  33  90 N10       30.08R FOG     WCI  28
MERRILL        CLOUDY    37  36  94 NE7       30.09R WCI  32
$$

WIZ029-030-035-036-043>047-250000-
CENTRAL WISCONSIN

CITY           SKY/WX    TMP DP  RH WIND       PRES   REMARKS
WAUSAU         LGT RAIN  38  36  92 N5        30.08R WCI  34
MOSINEE        DRIZZLE   37  37 100 NE7       30.08R WCI  32
MARSHFIELD     CLOUDY    38  38 100 NE6       30.07R WCI  33
STEVENS POINT  CLOUDY    36  35  98 NE10      30.08R WCI  28
WAUPACA        DRIZZLE   39  37  92 NE8       30.07S WCI  34
WAUTOMA        LGT RAIN  37  36  96 NE8       30.07R FOG     WCI  31
WISC RAPIDS    LGT RAIN  38  38 100 NE10      30.09R WCI  31
CAMP DOUGLAS   LGT RAIN  39  37  93 NE8       30.05R WCI  34
$$

WIZ011>013-019>022-031-037>040-048>050-250000-
NORTHEAST WISCONSIN

CITY           SKY/WX    TMP DP  RH WIND       PRES   REMARKS
ANTIGO         CLOUDY    35  34  97 NE6       30.08R WCI  30
SHAWANO        DRIZZLE   38  36  92 NE3       30.10R
OCONTO         CLOUDY    37  35  95 E3        30.11R
STURGEON BAY   LGT RAIN  35  34  96 NE6       30.11R FOG     WCI  30
GREEN BAY      LGT RAIN  36  36 100 NE15      30.09S WCI  27
MANITOWOC      LGT RAIN  36  34  92 N10G18    30.06F WCI  28
APPLETON       DRIZZLE   36  36 100 NE15      30.04S WCI  26
CLINTONVILLE   LGT RAIN  36  36 100 NE7       30.08S WCI  30
OSHKOSH        LGT RAIN  36  34  92 NE18G24   30.05R FOG     WCI  26
$$

WIZ032>034-041-042-053>061-250000-
SOUTHWEST WISCONSIN

CITY           SKY/WX    TMP DP  RH WIND       PRES   REMARKS
LA CROSSE      CLOUDY    43  39  86 NE13      30.05R FOG
SPARTA         DRIZZLE   40  38  93 NE9       30.07R WCI  33
VIROQUA        CLOUDY    39  38  99 NE10      30.03R WCI  32
BOSCOBEL       LGT RAIN  46  40  79 NE5       30.02R
PRAIRIE DU CHI DRIZZLE   46  39  79 N6        30.00R
PLATTEVILLE    CLOUDY    53  48  83 N9        29.98R
$$

WIZ056-057-062-063-064-067-068-250000-
SOUTH CENTRAL WISCONSIN

CITY           SKY/WX    TMP DP  RH WIND       PRES   REMARKS
REEDSBURG      CLOUDY    40  38  94 NE8       30.02R WCI  34
BARABOO/DELLS  CLOUDY    38  37  93 NE10G16   30.03R FOG     WCI  31
LONE ROCK      CLOUDY    45  39  79 NE12      30.02R HAZE
MINERAL POINT  CLOUDY    50  45  81 N12       29.97R
MADISON        LGT RAIN  43  38  82 N17       29.98F
MIDDLETON      CLOUDY    45  40  83 NE15G21   29.99F
WATERTOWN      LGT RAIN  42  39  88 N9        30.02R
MONROE         CLOUDY    52  45  76 N14       29.97R
JANESVILLE     CLOUDY    57  46  67 NE13      29.96R
$$

WIZ051-052-058>065-066-070>072-250000-
SOUTHEAST WISCONSIN

CITY           SKY/WX    TMP DP  RH WIND       PRES   REMARKS
MILWAUKEE      CLOUDY    39  35  86 N22G31    30.02R FOG     WCI  29
WAUKESHA       CLOUDY    43  36  75 NE14      30.02R
MILWAUKEE/TIMM CLOUDY    39  34  81 NE10      30.04R HAZE    WCI  32
RACINE         CLOUDY    39  35  86 N18G26    30.03R FOG     WCI  30
KENOSHA        CLOUDY    41  35  79 NE17      30.02R HAZE
FOND DU LAC    CLOUDY    38  34  85 NE14      30.05R WCI  30
SHEBOYGAN      LGT RAIN  37  34  89 NE21      30.02R WCI  26
WEST BEND      CLOUDY    37  36  93 NE14G21   30.03R WCI  29
JUNEAU         RAIN      37  36  94 N8        30.04R WCI  31
$$

LSZ147-162-250000-
LAKE SUPERIOR

STATION/POSITION TIME  TEMP    WIND        PRES    WAVE
                       AIR SEA DIR/SP/G            HT/PER
                 (UTC) (F)     (DEG/KT/KT) (MB)    (FT/S)
DEVILS ISLAND    2300   36      70/ 10/ 11 1023.2R
PORT WING        2230   36      30/  6/  9 1021.7R
SAXON HARBOR     2240   35      70/  1/  3 1021.7R
$$

LMZ867-665-643>646-250000-
LAKE MICHIGAN

STATION/POSITION TIME  TEMP    WIND        PRES    WAVE
                       AIR SEA DIR/SP/G            HT/PER
                 (UTC) (F)     (DEG/KT/KT) (MB)    (FT/S)
CHAMBERS ISLAND  2240   33      30/  4/  5 1019.0R
NORTHPORT PIER   2240   33     340/  2/  2 1019.3R
SISTER BAY       2236   35      20/  9/ 11   N/A
KEWAUNEE LAKESHO 2254   36      30/ 11/ 15 1018.6R
SHEBOYGAN LAKESH 2300   36      10/ 25/ 29 1017.4R
PORT WASHINGTON  2230   40      30/ 11/ 18 1017.6R
MILWAUKEE LAKESH 2250   37      20/ 17/ 19   N/A
KENOSHA   LAKESH 2300   38      10/ 21/ 26 1016.3
$$

TC  - TEMPERATURE IN CELSIUS
VSB - VISIBILITY IN STATUTE MILES
WCI - WIND CHILL INDEX
HX  - HEAT INDEX





USA.gov is the U.S. government's official web portal to all federal, state and local government web resources and services.